CST,Max TemperatureF,Mean TemperatureF,Min TemperatureF,Max Dew PointF,MeanDew PointF,Min DewpointF,Max Humidity, Mean Humidity, Min Humidity, Max Sea Level PressureIn, Mean Sea Level PressureIn, Min Sea Level PressureIn, Max VisibilityMiles, Mean VisibilityMiles, Min VisibilityMiles, Max Wind SpeedMPH, Mean Wind SpeedMPH, Max Gust SpeedMPH,PrecipitationIn, CloudCover, Events, WindDirDegrees
2013-2-1,75,62,49,55,48,41,96,64,31,30.32,30.25,30.20,10,10,10,18,10,24,0.00,4,,108
2013-2-2,81,70,59,60,58,55,93,71,48,30.23,30.18,30.12,10,10,10,21,7,24,0.00,5,,134
2013-2-3,79,68,56,61,55,45,100,66,31,30.27,30.19,30.02,10,8,0,20,8,24,0.00,1,Fog,97
2013-2-4,84,72,59,63,60,56,90,66,42,30.00,29.89,29.78,10,10,10,26,11,32,0.00,2,,158
2013-2-5,88,74,60,70,64,58,100,70,39,29.96,29.89,29.83,10,8,0,20,9,23,0.01,2,Fog,153
2013-2-6,84,75,65,72,68,64,93,74,55,29.93,29.88,29.75,10,9,2,23,9,29,0.20,6,Rain,128
2013-2-7,85,75,65,69,66,63,100,77,54,29.99,29.91,29.86,10,6,2,17,4,21,0.00,5,,71
2013-2-8,74,67,60,67,61,55,100,77,53,30.16,30.06,29.98,10,7,0,21,9,24,0.00,5,Fog,42
2013-2-9,83,71,59,70,66,57,100,79,58,30.03,29.92,29.80,10,9,5,24,14,30,T,6,Rain,138
2013-2-10,89,80,71,70,68,67,93,70,47,29.87,29.79,29.72,10,9,7,32,16,38,0.00,2,,166
2013-2-11,83,74,64,70,66,62,93,76,58,29.94,29.87,29.80,10,8,5,16,9,20,0.00,7,,19
2013-2-12,79,69,59,64,62,56,100,80,60,29.96,29.84,29.78,10,8,1,21,8,25,T,6,,351
2013-2-13,69,59,49,56,47,38,84,59,33,30.14,30.05,29.96,10,10,10,20,10,24,0.00,3,,27
2013-2-14,74,58,42,47,42,37,89,58,27,30.15,30.07,30.02,10,10,10,17,7,21,0.00,0,,60
2013-2-15,78,62,45,55,46,42,86,58,29,30.24,30.11,30.04,10,10,10,22,9,29,0.00,1,,56
2013-2-16,68,56,44,49,37,31,76,51,26,30.47,30.36,30.26,10,10,10,23,11,29,T,3,,34
2013-2-17,73,57,40,57,47,37,86,65,44,30.28,30.14,30.01,10,10,10,31,16,37,0.00,4,,146
2013-2-18,83,73,63,64,61,57,87,67,47,29.99,29.93,29.85,10,10,9,33,18,43,T,5,Rain,167
2013-2-19,75,65,55,63,59,54,100,81,61,30.15,30.06,29.99,10,7,0,24,13,29,0.00,5,Fog,81
2013-2-20,81,74,66,67,65,62,93,74,54,29.97,29.83,29.67,10,10,9,37,21,45,T,5,,150
2013-2-21,88,79,70,70,67,59,87,71,55,29.78,29.68,29.58,10,10,9,36,19,44,T,3,,147
2013-2-22,79,73,66,70,65,59,97,79,60,29.88,29.82,29.75,10,6,0,18,11,23,0.00,8,Fog,33
2013-2-23,77,66,54,59,52,48,86,62,38,30.00,29.93,29.86,10,10,9,21,10,26,0.00,4,,29
2013-2-24,77,65,53,68,62,53,93,83,73,29.90,29.75,29.62,10,10,5,13,7,17,T,5,,104
2013-2-25,79,68,56,70,39,1,100,53,6,29.88,29.68,29.54,10,8,4,40,19,49,0.00,4,,304
2013-2-26,75,59,42,47,28,17,77,45,12,30.04,29.95,29.88,10,10,10,22,9,29,0.00,0,,280
2013-2-27,83,66,48,56,47,37,89,55,20,30.16,30.00,29.88,10,10,10,22,9,37,0.00,0,,76
2013-2-28,68,58,48,43,34,25,66,43,20,30.29,30.22,30.14,10,10,10,24,12,29,0.00,1,,24